YAOGAN 2

Satellite information

Favourite Embed

Satellite Type and Status

PAYLOADIN ORBIT

Key statistics

Satellite YAOGAN 2 at a glance.

Uptime

6679

Days in orbit

Revolutions

≈ 14.8

Per day

Orbit

SSO

Sun Synchronous Orbit

Inclination

98.3

Latest

Satellite identification and parameters

Extended collection of information and parameters for YAOGAN 2.

Object identification

Identified? True

Debris? False

Object name: YAOGAN 2

International designator: 2007-019A

Object number (NORAD): 31490

Object ID (CCSDS): 31490

Country: PEOPLES REPUBLIC OF CHINA (PRC)

Current information (Y/N): Y

RCS size: LARGE

Orbital parameters

Period: 97.157 minutes

Inclination: 98.2962 deg

SMA: 7000.737 km

Apoapsis: 638.212 km

Periapsis: 606.992 km

RAAN: 94.5475 deg

Eccentricy: 0.00222976

Argument of periapsis: 112.491 deg

Mean anomaly: 247.8666 deg

Mean motion: 14.82132847 rev/day

Mean motion (dot): 0.00001448 rev/day2

B* drag term: 0.0001884313 1/REarth

Two-line elements (TLE)

Creation date: Sept. 6, 2025, 2:09 a.m.

Reference frame: TEME

Reference center: EARTH

Epoch: Sept. 5, 2025, 8:31 p.m. UTC

TLE line 0: 0 YAOGAN 2

TLE line 1: 1 31490U 07019A 25248.85540877 .00001448 00000-0 18843-3 0 9993

TLE line 2: 2 31490 98.2962 94.5475 0022298 112.4910 247.8666 14.82132847985483

Live tracking on map

Real-time ground track for satellite YAOGAN 2.

In-orbit conjunctions

There are no conjunctions computed for YAOGAN 2, at the moment. Check back to stay up to date, as we update our databases every day.

Go to all conjunctions

Associated space launch

Chinese Earth observation satellite likely also used for military reconnaissance

YAOGAN 2 was lifted into orbit during the mission ‘Long March 2D | Yaogan Weixing 2’, on board a Long March 2D space rocket.

The launch took place on May 25, 2007, 7:12 a.m. from Launch Area 4 (SLS-2 / 603).

For more information about the launch, click the button.

Launch to space Long March 2D | Yaogan Weixing 2
Long March 2D | Yaogan Weixing 2

Agency: N/A

Status: Launch Successful

Launch date: May 25, 2007, 7:12 a.m. UTC

Rocket: Long March 2D

Launch pad: Launch Area 4 (SLS-2 / 603)

Location: Jiuquan Satellite Launch Center, People's Republic of China

...

Latest news about this satellite

There are no fresh news available about this satellite. Check back as we update our databases every day.


Newsletter sign-up

Weekly statistics, charts and insights to help you stay on top of the space industry.